EW8816 Weather Reports


time (UTC)temp
C
wind
direction
speed
KPH
gust
KPH
rain 1hr
cm
rain 24hr
cm
rain mn
cm
humidity
%
barometer
mb
20211017160523 14 324 3.2 9.7 0.00 0.91 0.53 60 1005.1
20211017160040 14 295 3.2 9.7 0.00 0.91 0.53 60 1005.1
20211017155521 13 316 3.2 9.7 0.00 0.91 0.53 59 1005.2
20211017155024 14 326 3.2 8.0 0.00 0.91 0.53 60 1005.2
20211017154541 13 314 3.2 9.7 0.00 0.91 0.53 61 1005.2
20211017154024 13 269 3.2 9.7 0.00 0.91 0.53 61 1005.2
20211017153522 13 300 1.6 11.3 0.00 0.91 0.53 61 1005.3
20211017153050 13 305 4.8 11.3 0.00 0.91 0.53 61 1005.3
20211017152523 13 327 3.2 9.7 0.00 0.91 0.53 63 1005.5
20211017152026 13 328 3.2 9.7 0.00 0.91 0.53 64 1005.6
20211017151554 13 326 4.8 9.7 0.00 0.91 0.53 63 1005.5
20211017151027 13 328 3.2 11.3 0.00 0.91 0.53 65 1005.5
20211017150523 13 331 3.2 11.3 0.00 0.91 0.53 64 1005.6
20211017150105 13 330 3.2 9.7 0.00 0.91 0.53 66 1005.6
20211017145529 13 333 3.2 9.7 0.00 0.91 0.53 65 1005.6
20211017145022 13 324 3.2 9.7 0.00 0.91 0.53 65 1005.6
20211017144546 12 321 3.2 8.0 0.00 0.91 0.53 68 1005.5
20211017144020 12 337 1.6 6.4 0.00 0.91 0.53 71 1005.5
20211017143534 12 302 1.6 6.4 0.00 0.91 0.53 71 1005.6
20211017143049 12 337 1.6 6.4 0.00 0.91 0.53 71 1005.5
20211017142529 12 322 0.0 8.0 0.00 0.91 0.53 72 1005.4
20211017142025 12 285 3.2 8.0 0.00 0.91 0.53 72 1005.4
20211017141552 12 335 0.0 6.4 0.00 0.91 0.53 74 1005.5
20211017141020 12 305 1.6 6.4 0.00 0.91 0.53 73 1005.5
20211017140530 12 295 1.6 9.7 0.00 0.91 0.53 75 1005.5
20211017140033 12 317 1.6 9.7 0.00 0.91 0.53 77 1005.4
20211017135521 11 316 1.6 8.0 0.00 0.91 0.53 77 1005.4
20211017135019 11 290 1.6 6.4 0.00 0.91 0.53 79 1005.4
20211017134603 11 321 1.6 11.3 0.00 0.91 0.53 79 1005.4
20211017134025 11 309 4.8 11.3 0.00 0.91 0.53 81 1005.2
20211017133524 11 324 3.2 8.0 0.00 0.91 0.53 83 1005.0
20211017133038 11 323 1.6 4.8 0.00 0.91 0.53 88 1005.1
20211017132520 11 289 1.6 4.8 0.00 0.91 0.53 89 1005.0
20211017132020 11 325 1.6 6.4 0.00 0.91 0.53 90 1005.0
20211017131528 11 338 0.0 6.4 0.00 0.91 0.53 93 1005.0
20211017131020 11 309 0.0 3.2 0.00 0.91 0.53 94 1004.9
20211017130538 11 0 0.0 3.2 0.00 0.91 0.53 94 1004.9
20211017130031 10 330 0.0 3.2 0.00 0.91 0.53 94 1004.9
20211017125519 10 0 0.0 1.6 0.00 0.91 0.53 95 1004.9
20211017125019 10 321 0.0 3.2 0.00 0.91 0.53 95 1005.1
20211017124544 10 321 0.0 3.2 0.00 0.91 0.53 96 1005.0
20211017124022 10 307 0.0 1.6 0.00 0.91 0.53 97 1005.1
20211017123527 10 0 0.0 1.6 0.00 0.91 0.53 97 1005.0
20211017123047 10 0 0.0 1.6 0.00 0.91 0.53 97 1005.0
20211017122519 10 320 0.0 1.6 0.00 0.91 0.53 97 1004.9
20211017122035 10 320 0.0 1.6 0.00 0.91 0.53 97 1004.9
20211017121629 10 320 0.0 3.2 0.00 0.91 0.53 97 1004.9
20211017121023 10 0 0.0 3.2 0.00 0.91 0.53 97 1004.9
20211017120522 10 319 0.0 1.6 0.00 0.91 0.53 97 1004.8
20211017120029 10 0 0.0 1.6 0.00 0.91 0.53 97 1004.7
20211017115522 10 319 0.0 1.6 0.00 0.91 0.53 97 1004.7
20211017115026 10 0 0.0 1.6 0.00 0.91 0.53 97 1004.7
20211017114540 10 319 0.0 1.6 0.00 0.91 0.53 97 1004.6
20211017114027 10 0 0.0 1.6 0.00 0.91 0.53 97 1004.6
20211017113528 10 319 0.0 1.6 0.00 0.91 0.53 97 1004.5
20211017113115 10 0 0.0 1.6 0.00 0.91 0.53 97 1004.5
20211017112532 10 0 0.0 1.6 0.00 0.91 0.53 97 1004.5
20211017112022 10 319 0.0 3.2 0.00 0.91 0.53 97 1004.3
20211017111554 10 319 0.0 3.2 0.00 0.91 0.53 97 1004.3
20211017111023 10 319 0.0 3.2 0.00 0.91 0.53 97 1004.2
20211017110524 10 315 0.0 1.6 0.00 0.91 0.53 97 1004.1
20211017110058 10 315 0.0 1.6 0.00 0.91 0.53 97 1004.0
20211017105526 10 315 0.0 1.6 0.00 0.91 0.53 97 1003.9
20211017105026 10 315 0.0 1.6 0.00 0.91 0.53 97 1003.8
20211017104541 10 0 0.0 1.6 0.00 0.91 0.53 97 1003.8
20211017104023 10 0 0.0 1.6 0.00 0.91 0.53 97 1003.7
20211017103537 10 315 0.0 1.6 0.00 0.91 0.53 97 1003.7
20211017103040 10 0 0.0 1.6 0.00 0.91 0.53 97 1003.6
20211017102546 10 315 0.0 1.6 0.00 0.91 0.53 97 1003.6
20211017102023 10 314 0.0 1.6 0.00 0.91 0.53 97 1003.5
20211017101530 10 314 0.0 1.6 0.00 0.91 0.53 97 1003.5
20211017101024 11 0 0.0 1.6 0.00 0.91 0.53 97 1003.5
20211017100524 11 314 0.0 1.6 0.00 0.91 0.53 97 1003.5
20211017100148 11 302 0.0 1.6 0.00 0.91 0.53 97 1003.7
20211017095530 11 0 0.0 0.0 0.00 0.91 0.53 97 1003.8
20211017095023 11 0 0.0 1.6 0.00 0.91 0.53 97 1004.0
20211017094549 11 0 0.0 1.6 0.00 0.91 0.53 97 1004.1
20211017094044 11 0 0.0 1.6 0.00 0.91 0.53 97 1004.0
20211017093530 11 0 0.0 0.0 0.00 0.91 0.53 97 1003.7
20211017093035 11 0 0.0 0.0 0.00 0.91 0.53 97 1003.5
20211017092522 11 0 0.0 1.6 0.00 0.91 0.53 97 1003.6
20211017092023 12 0 0.0 1.6 0.00 0.91 0.53 97 1003.4
20211017091538 12 302 0.0 1.6 0.00 0.91 0.53 97 1003.3
20211017091022 12 0 0.0 1.6 0.00 0.91 0.53 98 1003.3
20211017090522 12 302 0.0 1.6 0.00 0.91 0.53 98 1003.0
20211017090035 12 0 0.0 1.6 0.00 0.91 0.53 98 1003.0
20211017085523 12 0 0.0 1.6 0.00 0.91 0.53 98 1003.1
20211017085020 12 0 0.0 1.6 0.00 0.91 0.53 97 1003.0
20211017084532 12 0 0.0 0.0 0.03 0.91 0.53 97 1002.7
20211017084024 12 0 0.0 0.0 0.03 0.91 0.53 97 1002.7
20211017083524 12 0 0.0 0.0 0.05 0.91 0.53 97 1002.7
20211017083056 12 0 0.0 0.0 0.08 0.91 0.53 97 1002.5
20211017082526 12 0 0.0 1.6 0.10 0.91 0.53 97 1002.2
20211017082019 12 0 0.0 1.6 0.13 0.91 0.53 97 1002.4
20211017081533 12 302 0.0 1.6 0.15 0.91 0.53 97 1002.4
20211017081020 12 294 0.0 1.6 0.18 0.91 0.53 98 1003.0
20211017080522 12 295 0.0 1.6 0.18 0.91 0.53 97 1001.9
20211017080122 12 0 0.0 3.2 0.20 0.91 0.53 98 1003.2
20211017075528 12 0 0.0 3.2 0.20 0.91 0.53 98 1003.4
20211017075020 12 0 0.0 1.6 0.20 0.91 0.53 98 1003.2
20211017074529 12 322 0.0 1.6 0.18 0.89 0.51 98 1003.5
20211017074021 12 0 0.0 1.6 0.18 0.89 0.51 98 1003.3
20211017073520 12 0 0.0 1.6 0.15 0.86 0.48 97 1002.9
20211017073025 13 0 0.0 1.6 0.15 0.84 0.46 97 1003.1
20211017072533 13 0 0.0 0.0 0.13 0.81 0.43 98 1003.2
20211017072023 13 0 0.0 1.6 0.10 0.76 0.38 98 1003.3
20211017071531 13 0 0.0 1.6 0.10 0.76 0.38 98 1003.3
20211017071020 13 0 0.0 0.0 0.08 0.74 0.36 98 1003.2
20211017070523 13 0 0.0 0.0 0.08 0.74 0.36 98 1003.1
20211017070051 13 0 0.0 0.0 0.05 0.71 0.33 97 1002.9
20211017065520 13 0 0.0 0.0 0.08 0.71 0.33 97 1002.8
20211017065020 13 0 0.0 0.0 0.10 0.71 0.33 97 1002.8
20211017064545 13 0 0.0 0.0 0.13 0.71 0.33 97 1002.8
20211017064020 13 0 0.0 0.0 0.13 0.71 0.33 97 1002.9
20211017063528 13 0 0.0 0.0 0.10 0.69 0.30 97 1003.2
20211017063027 13 0 0.0 0.0 0.10 0.69 0.30 97 1003.2
20211017062520 13 0 0.0 0.0 0.10 0.69 0.30 97 1003.2
20211017062037 13 0 0.0 1.6 0.10 0.66 0.28 97 1003.5
20211017061609 13 323 0.0 1.6 0.10 0.66 0.28 97 1003.2
20211017061020 13 0 0.0 1.6 0.10 0.66 0.28 97 1003.4
20211017060520 13 0 0.0 1.6 0.10 0.66 0.28 97 1003.3
20211017060029 13 0 0.0 1.6 0.10 0.66 0.28 97 1003.6
20211017055544 13 0 0.0 1.6 0.10 0.64 0.25 97 1003.5
20211017055028 13 323 0.0 1.6 0.10 0.61 0.23 97 1003.4
20211017054543 13 0 0.0 1.6 0.10 0.58 0.20 97 1003.8
20211017054019 13 0 0.0 1.6 0.10 0.58 0.20 97 1004.1
20211017053521 13 0 0.0 1.6 0.10 0.58 0.20 97 1004.2
20211017053049 13 0 0.0 1.6 0.10 0.58 0.20 97 1003.9
20211017052520 13 323 0.0 1.6 0.13 0.58 0.20 97 1003.8
20211017052020 13 0 0.0 1.6 0.13 0.56 0.18 97 1003.7
20211017051555 13 0 0.0 1.6 0.15 0.56 0.18 97 1003.6
20211017051022 13 0 0.0 1.6 0.15 0.56 0.18 97 1003.9
20211017050519 13 323 0.0 1.6 0.18 0.56 0.18 96 1003.7
20211017050040 13 323 0.0 1.6 0.18 0.56 0.18 97 1003.9
20211017045548 13 323 0.0 1.6 0.15 0.53 0.15 97 1004.0
20211017045020 13 0 0.0 1.6 0.15 0.51 0.13 97 1003.9
20211017044558 13 0 0.0 1.6 0.13 0.48 0.10 96 1003.8
20211017044019 13 0 0.0 1.6 0.15 0.48 0.10 96 1003.9
20211017043522 13 323 0.0 1.6 0.18 0.48 0.10 96 1004.1
20211017043109 13 0 0.0 3.2 0.23 0.48 0.10 96 1004.0
20211017042520 14 323 0.0 3.2 0.20 0.46 0.08 96 1003.9
20211017042030 14 304 0.0 3.2 0.20 0.43 0.05 95 1004.5
20211017041605 14 323 0.0 3.2 0.18 0.41 0.03 96 1004.2
20211017041020 14 323 0.0 1.6 0.18 0.41 0.03 96 1004.5
20211017040544 14 347 0.0 3.2 0.15 0.38 0.00 96 1004.4
20211017040136 14 310 0.0 3.2 0.18 0.38 0.00 96 1004.4
20211017035524 15 325 0.0 3.2 0.20 0.38 0.38 97 1004.0
20211017035028 15 0 0.0 3.2 0.23 0.36 0.36 97 1004.1
20211017034547 15 0 0.0 3.2 0.28 0.36 0.36 97 1004.1
20211017034020 15 326 0.0 3.2 0.23 0.30 0.30 97 1004.1
20211017033522 15 326 0.0 3.2 0.23 0.30 0.30 97 1004.2
20211017033032 15 308 0.0 3.2 0.18 0.25 0.25 97 1004.3
20211017032520 15 295 0.0 3.2 0.18 0.25 0.25 97 1004.3
20211017032028 15 0 0.0 3.2 0.15 0.23 0.23 96 1004.1
20211017031604 15 333 1.6 3.2 0.15 0.23 0.23 96 1003.9
20211017031039 15 333 0.0 3.2 0.15 0.23 0.23 96 1004.1
20211017030528 15 333 0.0 1.6 0.15 0.23 0.23 96 1004.0
20211017030045 15 0 0.0 3.2 0.18 0.20 0.20 95 1004.1
20211017025521 15 0 0.0 3.2 0.15 0.15 0.15 95 1004.3
20211017025036 15 320 0.0 3.2 0.10 0.10 0.10 95 1004.2
20211017024528 15 307 0.0 1.6 0.08 0.08 0.08 94 1003.8
20211017024020 15 322 0.0 3.2 0.08 0.08 0.08 94 1003.7
20211017023519 15 0 1.6 3.2 0.08 0.08 0.08 93 1003.4
20211017023051 16 319 0.0 4.8 0.08 0.08 0.08 92 1003.5
20211017022520 16 0 0.0 4.8 0.08 0.08 0.08 91 1003.5
20211017022023 16 326 1.6 8.0 0.08 0.08 0.08 90 1003.5
20211017021550 17 0 3.2 12.9 0.08 0.08 0.08 88 1003.8
20211017021024 18 330 3.2 14.5 0.08 0.08 0.08 86 1003.6
20211017020518 19 278 1.6 14.5 0.08 0.08 0.08 86 1003.3
20211017020028 20 271 3.2 11.3 0.00 0.00 0.00 84 1003.3
20211017015521 20 27 1.6 6.4 0.00 0.00 0.00 84 1002.5
20211017015021 20 51 0.0 3.2 0.00 0.00 0.00 84 1002.7
20211017014642 20 0 0.0 3.2 0.00 0.00 0.00 84 1003.0
20211017014028 20 316 0.0 3.2 0.00 0.00 0.00 85 1003.1
20211017013525 20 357 0.0 3.2 0.00 0.00 0.00 85 1003.1
20211017013051 20 0 0.0 6.4 0.00 0.00 0.00 85 1003.2
20211017012521 20 0 0.0 6.4 0.00 0.00 0.00 85 1003.3
20211017012022 20 346 0.0 3.2 0.00 0.00 0.00 85 1003.2
20211017011531 20 0 0.0 3.2 0.00 0.00 0.00 85 1003.2
20211017011031 20 21 0.0 3.2 0.00 0.00 0.00 85 1003.3
20211017010525 20 347 0.0 3.2 0.00 0.00 0.00 85 1003.4
20211017010034 20 0 0.0 3.2 0.00 0.00 0.00 85 1003.5
20211017005537 20 0 0.0 1.6 0.00 0.00 0.00 84 1003.6
20211017005021 20 0 0.0 1.6 0.00 0.00 0.00 84 1003.6
20211017004544 20 0 0.0 3.2 0.00 0.00 0.00 84 1003.8
20211017004021 20 0 0.0 6.4 0.00 0.00 0.00 84 1003.7
20211017003519 19 0 0.0 6.4 0.00 0.00 0.00 84 1003.8
20211017003037 19 0 0.0 1.6 0.00 0.00 0.00 83 1003.8
20211017002524 19 0 0.0 1.6 0.00 0.00 0.00 83 1003.9
20211017002019 20 340 0.0 1.6 0.00 0.00 0.00 82 1003.7
20211017001548 20 0 0.0 4.8 0.00 0.00 0.00 82 1003.8
20211017001027 20 0 0.0 4.8 0.00 0.00 0.00 81 1003.7
20211017000519 20 0 0.0 3.2 0.00 0.00 0.00 81 1003.7
20211017000036 20 0 0.0 6.4 0.00 0.00 0.00 81 1003.6
20211016235518 20 89 0.0 6.4 0.00 0.00 0.00 80 1003.6
20211016235021 20 0 0.0 6.4 0.00 0.00 0.00 80 1003.6
20211016234545 20 304 0.0 11.3 0.00 0.00 0.00 79 1003.6
20211016234029 20 82 0.0 11.3 0.00 0.00 0.00 79 1003.7
20211016233528 20 79 1.6 9.7 0.00 0.00 0.00 79 1003.9
20211016233034 20 11 0.0 4.8 0.00 0.00 0.00 78 1003.9
20211016232540 20 312 1.6 6.4 0.00 0.00 0.00 78 1004.0
20211016232022 20 0 1.6 6.4 0.00 0.00 0.00 78 1004.0
20211016231540 20 302 0.0 4.8 0.00 0.00 0.00 77 1004.1
20211016231022 20 6 0.0 4.8 0.00 0.00 0.00 77 1004.2
20211016230528 20 297 1.6 4.8 0.00 0.00 0.00 77 1004.2
20211016230034 20 279 1.6 6.4 0.00 0.00 0.00 78 1004.2
20211016225523 20 0 1.6 6.4 0.00 0.00 0.00 78 1004.0
20211016225022 20 0 0.0 6.4 0.00 0.00 0.00 78 1003.9
20211016224546 20 269 0.0 3.2 0.00 0.00 0.00 78 1003.9
20211016224023 20 0 0.0 4.8 0.00 0.00 0.00 78 1003.9
20211016223533 20 0 1.6 4.8 0.00 0.00 0.00 78 1003.8
20211016223044 20 32 0.0 4.8 0.00 0.00 0.00 79 1003.8
20211016222534 20 311 0.0 4.8 0.00 0.00 0.00 79 1003.8
20211016222022 20 340 0.0 3.2 0.00 0.00 0.00 79 1003.9
20211016221538 20 306 0.0 3.2 0.00 0.00 0.00 79 1004.0
20211016221031 20 0 0.0 3.2 0.00 0.00 0.00 79 1004.0
20211016220525 20 350 0.0 3.2 0.00 0.00 0.00 79 1003.9
20211016220057 20 312 0.0 4.8 0.00 0.00 0.00 79 1003.9
20211016215526 21 0 0.0 4.8 0.00 0.00 0.00 78 1003.9
20211016215023 21 323 0.0 1.6 0.00 0.00 0.00 78 1003.9
20211016214612 21 21 0.0 3.2 0.00 0.00 0.00 77 1003.8
20211016214046 21 349 0.0 3.2 0.00 0.00 0.00 76 1003.8
20211016213527 21 356 0.0 4.8 0.00 0.00 0.00 76 1003.8
20211016213057 21 0 0.0 4.8 0.00 0.00 0.00 76 1003.9
20211016212524 21 15 0.0 6.4 0.00 0.00 0.00 76 1003.9
20211016212022 21 339 1.6 8.0 0.00 0.00 0.00 76 1003.9
20211016211535 21 288 0.0 8.0 0.00 0.00 0.00 76 1003.9
20211016211023 21 356 0.0 4.8 0.00 0.00 0.00 76 1004.0
20211016210550 21 21 1.6 4.8 0.00 0.00 0.00 75 1004.0
20211016210051 21 308 0.0 4.8 0.00 0.00 0.00 75 1004.0
20211016205523 21 0 0.0 4.8 0.00 0.00 0.00 74 1004.2
20211016205023 21 267 0.0 6.4 0.00 0.00 0.00 74 1004.2
20211016204551 21 292 1.6 6.4 0.00 0.00 0.00 74 1004.2
20211016204023 21 281 0.0 4.8 0.00 0.00 0.00 73 1004.3
20211016203522 21 290 0.0 3.2 0.00 0.00 0.00 74 1004.4
20211016203037 21 0 0.0 8.0 0.00 0.00 0.00 75 1004.6
20211016202523 21 298 0.0 8.0 0.00 0.00 0.00 74 1004.6
20211016202036 21 111 1.6 6.4 0.00 0.00 0.00 74 1004.5
20211016201532 21 310 1.6 6.4 0.00 0.00 0.00 74 1004.5
20211016201023 21 298 0.0 4.8 0.00 0.00 0.00 75 1004.6
20211016200524 21 11 0.0 6.4 0.00 0.00 0.00 74 1004.8
20211016200111 21 21 1.6 8.0 0.00 0.00 0.00 73 1005.0
20211016195532 21 40 1.6 8.0 0.00 0.00 0.00 73 1004.9
20211016195023 21 321 1.6 8.0 0.00 0.00 0.00 73 1004.9
20211016194556 22 297 1.6 9.7 0.00 0.00 0.00 72 1005.0
20211016194028 22 336 3.2 9.7 0.00 0.00 0.00 72 1005.0
20211016193523 22 271 0.0 4.8 0.00 0.00 0.00 73 1005.0
20211016193031 22 0 1.6 6.4 0.00 0.00 0.00 73 1005.0
20211016192522 22 293 1.6 6.4 0.00 0.00 0.00 72 1005.1
20211016192022 22 297 1.6 8.0 0.00 0.00 0.00 72 1005.1
20211016191557 22 135 1.6 8.0 0.00 0.00 0.00 71 1005.2
20211016191023 22 41 1.6 9.7 0.00 0.00 0.00 71 1005.2
20211016190524 22 266 3.2 9.7 0.00 0.00 0.00 70 1005.2
20211016190101 22 284 3.2 8.0 0.00 0.00 0.00 71 1005.3
20211016185523 22 252 3.2 8.0 0.00 0.00 0.00 72 1005.4
20211016185032 22 315 1.6 6.4 0.00 0.00 0.00 72 1005.5
20211016184538 22 174 1.6 8.0 0.00 0.00 0.00 73 1005.6
20211016184023 22 308 1.6 9.7 0.00 0.00 0.00 72 1005.3
20211016183522 22 243 1.6 9.7 0.00 0.00 0.00 71 1005.3
20211016183105 22 263 0.0 6.4 0.00 0.00 0.00 73 1005.6
20211016182528 22 297 1.6 8.0 0.00 0.00 0.00 72 1005.6
20211016182023 22 266 1.6 8.0 0.00 0.00 0.00 71 1005.7
20211016181610 22 326 1.6 8.0 0.00 0.00 0.00 70 1005.9
20211016181023 23 330 3.2 8.0 0.00 0.00 0.00 69 1005.8
20211016180522 23 285 3.2 12.9 0.00 0.00 0.00 68 1005.7
20211016180120 23 0 1.6 12.9 0.00 0.00 0.00 70 1005.7
20211016175531 23 253 1.6 6.4 0.00 0.00 0.00 70 1005.9
20211016175023 23 283 1.6 6.4 0.00 0.00 0.00 71 1005.8
20211016174609 22 317 0.0 6.4 0.00 0.00 0.00 73 1006.0
20211016174024 22 56 1.6 6.4 0.00 0.00 0.00 73 1005.9
20211016173524 22 284 0.0 4.8 0.00 0.00 0.00 74 1006.0
20211016173049 22 293 0.0 9.7 0.00 0.00 0.00 74 1006.0
20211016172523 22 312 0.0 9.7 0.00 0.00 0.00 74 1006.1
20211016172023 22 320 0.0 6.4 0.00 0.00 0.00 74 1006.1
20211016171541 22 297 0.0 6.4 0.00 0.00 0.00 73 1006.3
20211016171026 22 240 0.0 3.2 0.00 0.00 0.00 75 1006.4
20211016170523 22 0 0.0 4.8 0.00 0.00 0.00 74 1006.6
20211016170045 22 306 0.0 4.8 0.00 0.00 0.00 75 1006.9
20211016165530 22 285 0.0 4.8 0.00 0.00 0.00 75 1006.9
20211016165024 22 70 0.0 6.4 0.00 0.00 0.00 75 1007.1
20211016164605 22 269 1.6 6.4 0.00 0.00 0.00 73 1007.2
20211016164026 22 0 0.0 4.8 0.00 0.00 0.00 74 1007.4
20211016163530 22 256 1.6 6.4 0.00 0.00 0.00 73 1007.4
20211016163037 22 294 1.6 8.0 0.00 0.00 0.00 74 1007.5
20211016162526 22 53 3.2 8.0 0.00 0.00 0.00 72 1007.5
20211016162023 22 336 1.6 6.4 0.00 0.00 0.00 73 1007.6
20211016161558 22 0 0.0 8.0 0.00 0.00 0.00 74 1007.5
20211016161033 22 302 0.0 8.0 0.00 0.00 0.00 74 1007.6